Key statistics
Satellite PEARL WHITE 1 at a glance.
Uptime
2088
Days in orbit
Revolutions
≈ 16.3
Per day
Orbit
LEO
Low Earth Orbit
Inclination
45.0
Latest
Satellite identification and parameters
Extended collection of information and parameters for PEARL WHITE 1.
Object identification
Identified? True
Debris? False
Object name: PEARL WHITE 1
International designator: 2019-054C
Object number (NORAD): 44497
Object ID (CCSDS): 44497
Country: UNITED STATES OF AMERICA (US)
Current information (Y/N): Y
RCS size: MEDIUM
Orbital parameters
Decay date: May 7, 2025
Period: 88.183 minutes
Inclination: 44.9775 deg
SMA: 6562.706 km
Apoapsis: 189.715 km
Periapsis: 179.428 km
RAAN: 29.1411 deg
Eccentricy: 0.0007837
Argument of periapsis: 242.3277 deg
Mean anomaly: 117.6851 deg
Mean motion: 16.3297035 rev/day
Mean motion (dot): 0.06459266 rev/day2
B* drag term: 0.0010001 1/REarth
Two-line elements (TLE)
Creation date: May 4, 2025, 5:21 p.m.
Reference frame: TEME
Reference center: EARTH
Epoch: May 4, 2025, 1:45 a.m. UTC
TLE line 0: 0 PEARL WHITE 1
TLE line 1: 1 44497U 19054C 25124.07320406 .06459266 10324-4 10001-2 0 9999
TLE line 2: 2 44497 44.9775 29.1411 0007837 242.3277 117.6851 16.32970350316775
Live tracking on map
Satellite PEARL WHITE 1 has decayed and is no longer in orbit. No tracking available.
In-orbit conjunctions
Satellite PEARL WHITE 1 has decayed and is no longer in orbit. No conjunctions available.
Associated space launch
Mission carries a satellite for the future UNSEENLABS maritime tracking constellation, a BlackSky Global-4 Earth observation satellite, and two experimental satellites for United States Air Force Space Command.
PEARL WHITE 1 was lifted into orbit during the mission ‘Electron | Look Ma, No Hands (Rideshare)’, on board a Electron space rocket.
The launch took place on Aug. 19, 2019, 12:12 p.m. from Rocket Lab Launch Complex 1A.
For more information about the launch, click the button.
Electron | Look Ma, No Hands (Rideshare)
Agency: N/A
Status: Launch Successful
Launch date: Aug. 19, 2019, 12:12 p.m. UTC
Rocket: Electron
Launch pad: Rocket Lab Launch Complex 1A
Location: Rocket Lab Launch Complex 1, Mahia Peninsula, New Zealand
...
Newsletter sign-up
Weekly statistics, charts and insights to help you stay on top of the space industry.
